Location: Fayetteville
(35.0530°N, 78.8790°W)
Time: 23:35:15
(UTC-04:00)

ISS - Visible Passes

Search period start: 26 September 2016 00:00
Search period end: 06 October 2016 00:00
Orbit: 400 x 410 km, 51.6° (Epoch: 27 September)

Date Brightness Start Highest point End Pass type
(mag) Time Alt. Az. Time Alt. Az. Time Alt. Az.
26 Sep -1.0 05:51:54 13° SSW 05:51:54 13° SSW 05:52:27 10° S visible
26 Sep -1.4 20:48:09 10° SW 20:49:31 23° SSW 20:49:31 23° SSW visible
27 Sep -2.3 19:56:35 10° SSW 19:59:23 27° SE 20:00:32 22° E visible
27 Sep 0.2 21:33:08 10° W 21:33:16 11° W 21:33:16 11° W visible
28 Sep -2.4 20:40:33 10° WSW 20:43:40 44° NW 20:44:04 41° NNW visible
29 Sep -3.4 19:48:18 10° SW 19:51:32 85° SE 19:54:40 11° NE visible
29 Sep 0.1 21:26:53 10° NW 21:27:22 11° NW 21:27:22 11° NW visible
30 Sep -0.9 20:33:36 10° W 20:36:05 20° NNW 20:37:47 14° N visible
01 Oct -1.8 19:40:49 10° WSW 19:43:49 34° NW 19:46:50 10° NNE visible
02 Oct -0.3 20:27:43 10° NW 20:28:37 11° NNW 20:29:32 10° N visible
03 Oct -0.7 19:34:01 10° WNW 19:36:12 17° NNW 19:38:24 10° NNE visible
